RH
72 74 76 76 70 73 69 66 66 63 59 55 54 54 56 57 56 58 58 58 58 58 55 59 58 64 72
75 79 83 81 80 80 65 57 64 61 63 60 58 56 55 56 61 62 57 58 59 63 64 60 67 61 61
83 84 83 86 80 82 82 78 64 63 60 60 60 60 60 58 55 52 60 62 62 56 56 58 59 61 61
88 84 87 78 90 90 83 80 80 64 65 66 64 63 64 57 55 60 62 59 57 56 56 54 63 60 63
92 91 89 85 85 80 87 84 82 88 85 88 86 86 83 69 62 62 61 60 59 58 57 57 54 54 58
92 96 90 89 82 82 81 95 87 87 94 91 90 86 85 78 67 65 63 65 65 65 57 57 56 58 56
94 97 91 85 98 87 98 94 85 78 85 82 92 91 82 68 67 68 65 63 60 59 58 58 61 60 63
89 98 96 92 85 83 98 84 78 78 93 93 91 96 91 89 76 67 62 59 59 59 58 60 64 64 60
64 64 66 65 68 89 92 96 90 93 95 95 96 97 88 84 75 64 63 62 64 61 82 67 62 60 91
81 83 80 86 74 88 94 98 97 94 97 96 98 96 96 86 84 80 84 67 64 63 60 71 64 79 96
88 91 92 92 92 91 92 94 95 95 85 87 99 99 98 96 89 88 88 87 85 82 72 70 66 68 93
95 90 91 90 90 90 90 90 91 93 87 91 100 99 100 95 92 85 87 84 91 91 91 81 75 70 66
88 90 89 90 89 94 90 90 92 92 79 90 98 96 99 97 94 89 90 88 94 96 98 95 94 93 96
94 90 88 94 87 92 97 94 92 91 86 88 93 96 97 96 96 94 94 98 96 95 99 97 89 95 97
88 84 83 88 88 90 96 96 96 94 93 88 91 96 96 98 97 94 96 98 98 98 99 95 85 78 85
92 95 96 96 95 94 96 100 98 95 96 94 96 97 97 93 92 97 99 99 99 99 99 98 89 94 97
97 96 96 96 95 96 96 98 96 95 95 97 99 98 99 99 97 98 99 98 99 98 98 97 90 96 94
Wind_Speed
2 2 3 5 6 6 8 9 8 19 22 22 22 21 21 19 18 14 15 15 15 15 16 17 16 15 17
4 4 4 5 6 8 8 8 8 15 21 22 21 21 20 19 16 13 14 15 12 12 14 17 17 14 13
7 3 4 3 7 6 6 7 6 15 18 19 19 20 19 14 12 12 6 7 9 11 13 13 15 16 14
5 6 4 6 4 6 8 5 7 8 13 15 16 17 14 13 15 10 6 8 11 15 15 10 12 13 13
5 5 6 7 8 7 8 8 8 5 6 4 4 5 6 9 5 8 12 14 15 14 12 13 14 14 15
7 6 8 7 7 9 11 8 8 3 2 5 3 6 5 4 10 14 14 16 13 11 12 16 17 15 14
11 7 9 9 7 12 7 6 8 8 6 11 3 6 6 6 12 12 13 14 14 15 15 15 14 13 12
9 9 9 7 6 6 6 8 7 5 3 7 3 4 4 4 10 10 12 14 16 17 17 16 10 7 9
16 18 18 17 13 5 5 5 7 4 2 3 3 3 3 3 4 8 8 4 12 13 15 10 4 8 1
7 10 11 10 14 5 5 6 5 4 1 4 3 3 5 2 2 3 4 13 14 15 13 11 9 1 2
6 6 5 5 5 5 5 4 6 6 6 3 2 2 3 4 3 3 4 5 4 6 11 10 9 6 3
5 5 5 6 6 6 7 6 5 8 8 5 3 3 2 5 5 2 3 5 4 4 3 6 8 9 11
6 6 6 7 8 6 6 7 7 8 7 4 4 5 4 5 6 5 4 2 3 3 2 3 2 1 2
6 7 6 5 6 4 5 6 8 6 6 6 5 5 5 6 6 7 5 3 2 2 2 2 3 2 2
6 8 8 6 7 6 4 5 4 7 8 6 5 6 7 9 5 6 5 3 4 3 2 1 3 4 3
7 6 6 6 7 6 4 2 5 7 7 7 5 3 3 4 10 5 3 1 1 1 1 1 2 3 2
6 6 6 5 8 6 6 5 6 6 6 4 3 1 2 2 2 9 3 2 2 1 1 1 2 3 2
Wind_Direction
275 284 283 295 296 280 289 292 289 296 301 298 298 297 296 289 282 282 289 289 293 296 297 309 306 314 319
302 303 267 274 270 293 295 302 300 303 306 304 298 297 298 284 283 277 281 283 296 307 304 303 308 307 308
299 279 287 284 300 284 282 285 286 299 309 309 308 305 301 296 295 295 327 314 299 297 298 294 301 303 303
287 294 284 297 272 293 300 288 293 292 296 295 299 302 303 289 287 284 281 292 297 299 290 293 294 301 296
278 281 292 304 302 302 290 295 290 260 275 279 282 288 287 283 267 278 281 282 285 278 289 297 288 290 286
291 278 290 293 298 302 297 287 307 264 287 286 272 280 272 258 267 277 281 283 281 273 295 296 286 281 279
310 295 289 295 299 308 309 293 296 298 291 295 248 262 262 264 274 281 283 288 289 297 290 289 283 280 277
294 297 286 295 291 306 306 305 296 287 261 289 286 257 281 273 280 286 291 290 297 292 283 275 271 270 287
329 325 321 322 321 342 320 315 315 289 351 299 346 319 300 287 292 316 319 331 323 312 331 271 282 283 3
314 316 318 320 331 334 313 300 308 308 280 342 319 2 320 276 301 309 299 306 301 305 301 292 287 261 193
315 308 309 310 309 308 297 294 295 275 277 303 266 287 224 291 291 290 281 290 294 287 292 287 285 275 205
302 308 310 311 306 303 301 292 270 265 281 263 236 204 226 283 276 287 267 267 256 269 283 299 304 286 277
319 312 306 297 299 301 297 291 284 279 281 259 219 261 225 249 272 272 293 278 253 252 280 264 259 285 281
310 307 303 304 315 302 301 313 316 302 284 270 256 237 259 246 252 269 260 252 263 243 231 265 280 229 268
320 318 318 314 311 309 290 312 308 307 306 304 275 249 249 255 267 260 271 247 245 248 222 257 275 264 226
312 303 304 307 308 309 299 258 300 305 299 303 304 325 330 278 225 276 263 226 300 295 210 245 301 304 247
296 301 302 297 315 307 306 297 306 299 300 301 312 343 343 292 306 45 3 7 354 18 39 197 283 284 264